Preview of NWS' New Version of Forecast
This preview is not operational and should not be used for support decisions.

Regional Weather Roundup (RWR)

Issued by National Weather Service (NWS)

                            
000
ASUS42 KTBW 211818
RWRFL 
FLORIDA REGIONAL WEATHER ROUNDUP
NATIONAL WEATHER SERVICE TAMPA BAY RUSKIN FL
200 PM EDT SUN JUL 21 2019

NOTE: "FAIR" INDICATES FEW OR NO CLOUDS BELOW 12,000 FEET WITH NO
SIGNIFICANT WEATHER AND/OR OBSTRUCTIONS TO VISIBILITY.

FLZ001>010-012>015-112-114-115-211900-
PANHANDLE FLORIDA
  
CITY           SKY/WX    TMP DP  RH WIND       PRES   REMARKS
PENSACOLA      CLOUDY    82  75  79 S10       30.07F                  
PENSACOLA NAS  LGT RAIN  80  75  84 S9        30.07F                  
MILTON NAS     PTSUNNY   83  74  74 SW6         N/A                   
CRESTVIEW      RAIN      75  73  93 N3        30.10R FOG              
DUKE FIELD     PTSUNNY   81  71  71 N8        30.07S                  
VALPARAISO     FAIR      87  73  61 SW8       30.07S                  
TRI COUNTY     FAIR      91  72  53 VRB3      30.06F HX  98           
PANAMA CITY    FAIR      89  71  55 S3        30.05F HX  95           
TYNDALL AFB    FAIR      87  75  67 S9        30.06S HX  96           
APALACHICOLA   FAIR      87  75  67 S9        30.07F HX  96           

STATION/POSITION SKY/WX   TEMP    WIND        PRES    WAVE   SWELL
                          AIR SEA DIR/SP/G            HT/PER HT/PER
                          (F)     (DEG/KT/KT) (MB)    (FT/S) (FT/S)
30.1N   87.6W              79 85  130/  6/ 10 1018.6
29.2N   88.2W              78 84  200/ 10/ 12 1018.5
28.8N   86.0W                 86  220/  6/  8 1018.4F   2/ 3   2/ 6
PANAMA CITY BEAC                  190/  6/  7   N/A
TOWER C                    83     110/  2/  3 1018.7F
28.5N   84.5W              82      80/  4/  6 1019.4

$$
FLZ011-016>038-118-127-128-134-139-239-211900-
NORTH FLORIDA
  
CITY           SKY/WX    TMP DP  RH WIND       PRES   REMARKS
MARIANNA       FAIR      89  71  55 VRB3      30.06F HX  95           
TALLAHASSEE    FAIR      91  73  55 SE3       30.06F HX  99           
PERRY          FAIR      91  69  48 NW8       30.08F HX  96           
LIVE OAK       SUNNY     91  72  52 CALM      30.07F HX  98           
CROSS CITY     FAIR      86  73  64 W12       30.07F THUNDER          
LAKE CITY      PTSUNNY   88  72  58 CALM      30.08F                  
GAINESVILLE    PTSUNNY   90  73  57 VRB3      30.09F HX  98           
WILLISTON      PTSUNNY   88  74  62 SE5       30.07F HX  97           
PALATKA        FAIR      91  68  46 CALM      30.06F HX  95           
MAYPORT NAS    FAIR      90  75  61 E9        30.07F HX 100           
JACKSONVILLE   FAIR      93  72  50 NW6       30.06F HX 101           
JAX NAS        FAIR      91  71  51 E6        30.07F HX  97           
JAX CECIL      PTSUNNY   95  73  49 VRB5      30.07F HX 105           
FERNANDINA BEA FAIR      87  78  72 E9        30.07F HX 100           
ST AUGUSTINE   PTSUNNY   89  77  67 E12       30.08F HX 101           
PALM COAST     PTSUNNY   88  75  66 SE8       30.07F HX  97           

STATION/POSITION SKY/WX   TEMP    WIND        PRES    WAVE   SWELL
                          AIR SEA DIR/SP/G            HT/PER HT/PER
                          (F)     (DEG/KT/KT) (MB)    (FT/S) (FT/S)
SHELL POINT      NOT AVBL
KEATON BEACH               85     240/  7/  8 1018.4F
CEDAR KEY                  85     210/  6/  7 1018.4F
FERNANDINA                 93 83  120/  5/  9 1019.3
30.7N   81.3W                 86                N/A     1/ 8
MAYPORT                    86 80   90/  7/  9 1019.0
31.4N   80.9W              83 85  170/  4/  6 1018.6F   2/ 8   2/ 8
ST AUGUSTINE               82 77  120/ 11/ 11 1018.6F

$$
FLZ040-043>046-052-053-057-058-063-144-211900-
INTERIOR CENTRAL FLORIDA
  
CITY           SKY/WX    TMP DP  RH WIND       PRES   REMARKS
OCALA          PTSUNNY   90  73  57 S5        30.07F HX  98           
LEESBURG       FAIR      92  72  51 VRB5      30.07F HX  99           
SANFORD        FAIR      91  71  51 VRB5      30.05F HX  97           
ORLANDO EXEC   PTSUNNY   91  70  49 SE8       30.05F HX  96           
ORLANDO INTL   PTSUNNY   91  72  53 E10G16    30.04F THUNDER HX  98   
KISSIMMEE      PTSUNNY   91  73  55 SE5       30.06F THUNDER HX  99   
WINTER HAVEN   FAIR      92  71  50 CALM      30.07F HX  98           
LAKELAND       PTSUNNY   91  72  52 CALM      30.07F HX  98           
BARTOW         LGT RAIN  91  75  59 CALM      30.05F HX 102           
SEBRING        FAIR      83  72  68 SW12      30.07S                  
OKEECHOBEE     FAIR      88  73  62 SE7       30.07S HX  96           

$$
FLZ041-047-054-059-064-141-147-211900-
EAST CENTRAL FLORIDA
  
CITY           SKY/WX    TMP DP  RH WIND       PRES   REMARKS
ORMOND BEACH   MOSUNNY   88  75  66 E8        30.07F HX  97           
DAYTONA BEACH  PTSUNNY   90  78  68 E9        30.07F THUNDER HX 104   
DELAND         FAIR      91  72  52 W7        30.05F HX  98           
NEW SMYRNA BEA MOSUNNY   86  73  66 E12       30.09F                  
JFK SPACE CTR  PTSUNNY   89  66  46 SE9       30.07F                  
TITUSVILLE     MOSUNNY   93  73  52 SE10G17   30.08F HX 102           
CAPE CANAVERAL MOSUNNY   89  55  30 SE9       30.07S                  
PATRICK AFB    PTSUNNY   89  78  70 SE10      30.07F HX 104           
MELBOURNE      FAIR      86  76  71 SE10      30.07F HX  96           
VERO BEACH     FAIR      87  74  64 SE12      30.08S HX  95           
FT PIERCE      FAIR      89  72  56 SE13      30.07S HX  96           

STATION/POSITION SKY/WX   TEMP    WIND        PRES    WAVE   SWELL
                          AIR SEA DIR/SP/G            HT/PER HT/PER
                          (F)     (DEG/KT/KT) (MB)    (FT/S) (FT/S)
28.5N   80.2W              84 84  150/  6/  8 1018.6F   2/ 8   2/ 8
28.9N   78.5W              85 87  140/  8/ 12   N/A
TRIDENT PIER               88 83  120/  8/ 10 1020.3
28.4N   80.5W                 84                N/A     1/ 7
27.5N   80.2W                 83                N/A     2/ 4

$$
FLZ050-056-061-142-242-148-248-149-249-151-251-155-255-
160-260-211900-
WEST CENTRAL FLORIDA
  
CITY           SKY/WX    TMP DP  RH WIND       PRES   REMARKS
CRYSTAL RIVER  FAIR      90  77  66 W6        30.06F HX 102           
INVERNESS      FAIR      90  77  66 CALM      30.07F HX 102           
BROOKSVILLE    FAIR      91  74  57 CALM      30.07F HX 100           
CLEARWATER AIR CLOUDY    73  70  88 SW14G23   30.08R                  
ST PETE CLEARW PTSUNNY   83  72  69 NW13      30.07S THUNDER          
TAMPA INTL     PTSUNNY   88  74  63 SW9       30.07F HX  96           
TAMPA EXEC     FAIR      90  72  55 CALM      30.06F HX  96           
PLANT CITY     FAIR     N/A N/A N/A MISG      30.08F                  
MACDILL AFB    FAIR      90  74  60 S7        30.06F HX  99           
PETER O KNIGHT PTSUNNY   90  73  58 S6        30.07S HX  98           
ST PETERSBURG  FAIR      89  74  60 SE6       30.04F HX  98           
SARASOTA       RAIN      87  72  60 W7        30.04F                  
VENICE         FAIR      90  75  62 SW10      30.05F HX 100           

STATION/POSITION SKY/WX   TEMP    WIND        PRES    WAVE   SWELL
                          AIR SEA DIR/SP/G            HT/PER HT/PER
                          (F)     (DEG/KT/KT) (MB)    (FT/S) (FT/S)
27.3N   84.2W                 87                N/A     2/ 4
CLEARWATER BEACH                   10/ 13/ 16   N/A
MIDDLE TAMPA BAY           87     280/  8/ 10 1018.5
VENICE                     85 86  200/  9/ 10 1017.5F

$$
FLZ066-069-070-075>078-162-262-165-265-211900-
SOUTHWEST FLORIDA AND KEYS
  
CITY           SKY/WX    TMP DP  RH WIND       PRES   REMARKS
PUNTA GORDA    FAIR      90  72  55 S8        30.05F HX  97           
FT MYERS       FAIR      91  71  51 S8        30.03F HX  97           
SOUTHWEST INTL FAIR      90  70  51 S9        30.04F HX  95           
MARCO ISLAND   FAIR      91  74  57 MISG      30.05F HX 100           
IMMOKALEE      FAIR      93  70  46 VRB7G14   30.02F HX  99           
MARATHON       FAIR      89  76  65 MISG      30.06S HX 100           
KEY WEST NAS   PTSUNNY   91  75  59 E12       30.05F HX 101           
KEY WEST INTL  FAIR      87  75  67 SE10      30.06F HX  96           

STATION/POSITION SKY/WX   TEMP    WIND        PRES    WAVE   SWELL
                          AIR SEA DIR/SP/G            HT/PER HT/PER
                          (F)     (DEG/KT/KT) (MB)    (FT/S) (FT/S)
NAPLES                     88 87              1017.9
26.0N   85.6W              85 86   90/  4/  6 1017.8F   2/ 4   2/ 4
DRY TORTUGAS               84     170/  7/  8 1017.9F
SAND KEY                   85     130/ 11/ 12 1016.7
SOMBRERO KEY               84     120/  7/  9 1018.1
LONG KEY                   83                 1017.0

$$
FLZ067-068-071>074-168-172>174-211900-
SOUTHEAST FLORIDA 
  
CITY           SKY/WX    TMP DP  RH WIND       PRES   REMARKS
W PALM BEACH   PTSUNNY   86  74  67 SE14      30.08S                  
BOCA RATON     SUNNY     90  73  58 E12       30.07  HX  98           
FT LAUDER-EXEC FAIR      89  75  63 E14       30.05F HX  99           
FT LAUDERDALE  PTSUNNY   88  74  63 E16       30.05F HX  96           
POMPANO BEACH  PTSUNNY   89  73  59 E13       30.06F HX  97           
PEMBROKE PINES FAIR      90  75  61 E14       30.06F HX 100           
OPA LOCKA      FAIR      90  77  65 E15       30.06F HX 103           
MIAMI          PTSUNNY   91  72  53 SE14      30.06F HX  98           
WEST KENDALL   FAIR      90  76  63 E14G20    30.06F HX 101           
HOMESTEAD      PTSUNNY   89  76  64 E9        30.05F HX 100           

STATION/POSITION SKY/WX   TEMP    WIND        PRES    WAVE   SWELL
                          AIR SEA DIR/SP/G            HT/PER HT/PER
                          (F)     (DEG/KT/KT) (MB)    (FT/S) (FT/S)
PORT EVERGLADES            86      90/  7/ 11 1018.6S
VIRGINIA KEY                       90/  7/  9   N/A
LAKE WORTH                 82 84  130/ 13/ 14 1019.8
FOWEY ROCKS                84 85  100/ 11/ 12 1018.3F
SETTLEMENT POINT           82     140/  8/  9 1018.7F

$$